Weather History for Chillicothe, MO

Change the Weather History Date:

Saturday, August 3, 2013

  Actual Average (KIRK) Record (KIRK)
Temperature  
Mean Temperature 76 °F 76 °F  
Max Temperature 87 °F 86 °F 107 °F (1930)
Min Temperature 66 °F 65 °F 51 °F (1966)
Degree Days  
Heating Degree Days 0 0  
Month to date heating degree days 0  
Since 1 June heating degree days 17  
Since 1 July heating degree days 1  
Cooling Degree Days 11 10  
Month to date cooling degree days 31  
Year to date cooling degree days 598  
Since 1 June cooling degree days 536  
Growing Degree Days 26 (Base 50)    
Moisture  
Dew Point 62 °F    
Average Humidity 65    
Maximum Humidity 91    
Minimum Humidity 44    
Precipitation  
Precipitation 0.00 in 0.11 in 2.05 in (2001)
Month to date precipitation 0.34  
Year to date precipitation 23.93  
Sea Level Pressure  
Sea Level Pressure 30.05 in    
Wind  
Wind Speed 5 mph (NNE)    
Max Wind Speed 10 mph    
Max Gust Speed -    
T = Trace of Precipitation, MM = Missing Value Source: NWS Daily Summary

Daily Weather History Graph

Daily Weather History Graph

Search for Another Location

Airport:

Trip Planner

Search our weather history database for the weather conditions in past years. The results will help you decide how hot, cold, wet, or windy it might be!

Date:

Astronomy

Aug. 03, 2013 Rise Set
Actual Time 6:15 AM CDT 8:25 PM CDT
Civil Twilight 5:45 AM CDT 8:55 PM CDT
Nautical Twilight 5:08 AM CDT 9:31 PM CDT
Astronomical Twilight 4:28 AM CDT 10:11 PM CDT
Moon 3:25 AM CDT (8/3) 6:07 PM CDT (8/3)
Length of Visible Light 15h 09m
Length of Day
14h 09m
Waning Crescent, 9% of the Moon is Illuminated
Aug 3
Waning Crescent
Aug 6
New
Aug 14
First Quarter
Aug 20
Full
Aug 28
Last Quarter

Hourly Weather History & Observations

Time (CDT) Temp. Heat Index Dew Point Humidity Pressure Visibility Wind Dir Wind Speed Gust Speed Precip Events Conditions
12:52 AM 72.0 °F - 69.1 °F 91% 29.96 in - North 5.8 mph - N/A   Unknown
1:52 AM 73.0 °F - 68.0 °F 84% 29.97 in - NNE 5.8 mph - N/A   Unknown
2:52 AM 70.0 °F - 63.0 °F 78% 29.96 in - NNE 6.9 mph - N/A   Unknown
3:52 AM 69.1 °F - 61.0 °F 75% 29.96 in - NNE 5.8 mph - N/A   Unknown
4:52 AM 66.9 °F - 61.0 °F 81% 29.97 in - North 3.5 mph - N/A   Unknown
5:52 AM 66.9 °F - 60.1 °F 79% 30.02 in - Calm Calm - N/A   Unknown
6:52 AM 66.0 °F - 60.1 °F 81% 30.01 in - North 8.1 mph - N/A   Unknown
7:52 AM 69.1 °F - 61.0 °F 75% 30.04 in - NNE 5.8 mph - N/A   Unknown
8:52 AM 71.1 °F - 61.0 °F 70% 30.06 in - ENE 4.6 mph - N/A   Unknown
9:52 AM 73.9 °F - 62.1 °F 66% 30.07 in - ENE 6.9 mph - N/A   Unknown
10:52 AM 77.0 °F - 63.0 °F 62% 30.08 in - NNE 4.6 mph - N/A   Unknown
11:52 AM 78.1 °F - 63.0 °F 60% 30.09 in - Calm Calm - N/A   Unknown
12:52 PM 80.1 °F 81.9 °F 64.9 °F 60% 30.09 in - East 4.6 mph - N/A   Unknown
1:52 PM 82.9 °F 84.4 °F 64.0 °F 53% 30.07 in - Calm Calm - N/A   Unknown
2:52 PM 84.0 °F 86.3 °F 66.0 °F 55% 30.07 in - Variable 3.5 mph - N/A   Unknown
3:52 PM 86.0 °F 86.8 °F 63.0 °F 46% 30.06 in - North 5.8 mph - N/A   Unknown
4:52 PM 86.0 °F 86.3 °F 62.1 °F 44% 30.06 in - NNE 5.8 mph - N/A   Unknown
5:52 PM 86.0 °F 86.3 °F 62.1 °F 44% 30.05 in - NNE 10.4 mph - N/A   Unknown
6:52 PM 84.0 °F 84.4 °F 61.0 °F 46% 30.06 in - NNE 5.8 mph - N/A   Unknown
7:52 PM 79.0 °F - 62.1 °F 56% 30.06 in - NE 4.6 mph - N/A   Unknown
8:52 PM 73.9 °F - 61.0 °F 64% 30.08 in - Calm Calm - N/A   Unknown
9:52 PM 73.0 °F - 60.1 °F 64% 30.12 in - Calm Calm - N/A   Unknown
10:52 PM 71.1 °F - 60.1 °F 68% 30.14 in - Calm Calm - N/A   Unknown
11:52 PM 70.0 °F - 59.0 °F 68% 30.15 in - NNE 4.6 mph - N/A   Unknown